Location: Poughquag
(41.6090°N, 73.6820°W)
Time: 12:46:43
(UTC-05:00)

SO-50 - Visible Passes

Search period start: 30 November 2023 00:00
Search period end: 10 December 2023 00:00
Orbit: 601 x 670 km, 64.6° (Epoch: 29 November)

Date Brightness Start Highest point End Pass type
(mag) Time Alt. Az. Time Alt. Az. Time Alt. Az.
30 Nov ? 04:33:11 63° NE 04:33:11 63° NE 04:37:11 10° NE visible
30 Nov ? 06:10:45 12° WNW 06:13:18 17° NW 06:16:23 10° N visible
01 Dec ? 04:56:19 38° N 04:56:19 38° N 04:59:40 10° NNE visible
02 Dec ? 03:41:37 12° NE 03:41:37 12° NE 03:42:00 10° NE visible
02 Dec ? 05:19:08 22° NNW 05:19:08 22° NNW 05:21:48 10° N visible
03 Dec ? 04:04:15 13° NNE 04:04:15 13° NNE 04:04:42 10° NNE visible
03 Dec ? 05:41:45 13° NNW 05:41:45 13° NNW 05:43:24 10° N visible
04 Dec ? 04:26:43 12° NNE 04:26:43 12° NNE 04:27:01 10° NNE visible
